#timestamp,LO_Frequency,Hit,StdDev 
1618048815.1,286047000.2,N
1618048835.9,286046999.8,N
1618048855.7,286047001.0,N
1618048875.5,286047000.5,N
1618048895.4,286047000.6,N
1618048915.2,286047000.0,N
1618048935.1,286046999.7,N
1618048936.0,286046999.7,N
1618048955.8,286047002.4,N
1618048975.6,286046999.8,N
1618048995.5,286047002.8,N
1618049015.3,286047000.2,N
1618049035.1,286047002.3,N
1618049055.9,286047002.8,N
1618049075.7,286046999.8,N
1618049095.6,286047000.1,N
1618049115.4,286047002.8,N
1618049135.2,286047002.7,N
1618049155.1,286047002.8,N
1618049156.0,286047002.8,N
1618049175.8,286047002.1,N
1618049195.6,286047002.5,N
1618049215.5,286047002.2,N
1618049235.3,286047002.6,N
1618049255.2,286047002.3,N
1618049275.0,286047002.3,N
1618049275.9,286047002.3,N
1618049295.7,286047000.1,N
1618049315.6,286047000.3,N
1618049335.4,286046999.7,N
1618049355.3,286047000.0,N
1618049375.1,286047000.0,N
1618049376.0,286047000.0,N
1618049395.8,286047001.1,N
1618049415.7,286047000.7,N
1618049435.5,286047000.8,N
1618049455.3,286047001.1,N
1618049475.2,286047000.9,N
1618049495.0,286047000.9,N
1618049495.9,286047000.9,N
1618049515.8,286047000.6,N
1618049535.6,286047000.6,N
1618049555.4,286047000.6,N
1618049575.3,286047001.2,N
1618049595.1,286046998.2,N
1618049615.9,286047001.0,N
1618049635.7,286046998.5,N
1618049655.5,286047000.8,N
1618049675.4,286047000.3,N
1618049695.2,286047000.5,N
1618049715.0,286047001.0,N
1618049716.0,286047001.0,N
1618049735.8,286047000.7,N
1618049755.6,286047000.9,N
1618049775.5,286047001.0,N
1618049795.3,286047000.4,N
1618049815.1,286047000.4,N
1618049835.9,286047001.0,N
1618049855.7,286047000.7,N
1618049875.6,286047000.8,N
1618049895.4,286047001.0,N
1618049915.2,286047000.2,N
1618049935.1,286047000.0,N
1618049936.0,286047000.0,N
1618049955.8,286047002.7,Y
1618049975.7,286047000.5,P
1618049995.5,286047000.6,P
1618050015.3,286047000.5,P
1618050035.2,286047001.1,Y
1618050055.0,286047001.2,P
1618050055.9,286047001.2,P
1618050075.8,286047000.8,N
1618050095.6,286046998.1,Y
1618050115.4,286046999.2,P
1618050135.3,286046999.4,N
1618050155.1,286046996.5,P
1618050175.8,286046996.9,N
1618050195.7,286046996.6,N
1618050215.5,286046996.6,N
1618050235.4,286046996.7,N
1618050255.2,286046997.2,N
1618050275.0,286046997.1,N
1618050275.9,286046997.1,N
1618050295.8,286046996.7,N
1618050315.6,286046997.1,N
1618050335.5,286046997.2,N
1618050355.3,286046997.3,N
1618050375.1,286046997.1,N
1618050395.9,286046996.8,N
1618050415.7,286046997.3,N
1618050435.5,286046997.7,N
1618050455.4,286046997.2,N
1618050475.2,286046997.2,N
1618050495.1,286046997.3,N
1618050496.0,286046997.3,N
1618050515.8,286046997.1,N
1618050535.6,286046997.1,N
1618050555.5,286046997.3,N
1618050575.3,286046997.0,Y
1618050595.1,286047000.7,P
1618050615.9,286047000.4,N
1618050635.7,286047001.1,N
1618050655.6,286047001.0,N
1618050675.4,286046999.8,N
1618050695.2,286047000.1,N
1618050715.1,286046999.9,N
1618050716.0,286046999.9,N
1618050735.8,286047000.7,N
1618050755.7,286047001.0,N
1618050775.5,286047000.9,N
1618050795.3,286047000.5,N
1618050815.2,286046999.8,N
1618050835.0,286047002.8,Y
1618050835.9,286047002.8,P
1618050855.8,286046999.9,N
1618050875.6,286046999.9,N
1618050895.4,286047000.7,N
1618050915.3,286047000.6,N
1618050935.1,286047000.3,N
1618050955.8,286047000.4,N
1618050975.7,286047000.9,N
1618050995.5,286047000.5,N
1618051015.4,286047000.5,N
1618051035.2,286046998.2,N
1618051055.0,286047000.5,N
1618051055.9,286047000.5,N
1618051075.8,286047000.5,N
1618051095.6,286047000.4,N
1618051115.4,286047000.3,N
1618051135.3,286046998.1,N
1618051155.1,286046998.1,N
1618051175.9,286047000.7,N
1618051195.7,286047001.2,N
1618051215.5,286047000.8,N
1618051235.4,286047000.8,N
1618051255.2,286046999.7,N
1618051275.1,286047000.2,N
1618051276.0,286047000.2,N
1618051295.8,286047000.6,N
1618051315.6,286047000.4,N
1618051335.5,286047002.4,N
1618051355.3,286047000.3,N
1618051375.2,286047002.5,N
1618051395.9,286046999.8,N
1618051415.7,286046999.7,N
1618051435.6,286047000.2,N
1618051455.4,286046999.8,N
1618051475.2,286047000.4,N
1618051495.1,286047001.0,N
1618051496.0,286047001.0,N
1618051515.8,286047000.6,N
1618051535.7,286047001.0,N
1618051555.5,286046998.1,N
1618051575.3,286047001.2,N
1618051595.2,286046998.2,N
1618051615.0,286046998.3,N
1618051615.9,286046998.3,N
1618051635.7,286047001.1,N
1618051655.6,286046998.2,N
1618051675.4,286046998.5,N
1618051695.3,286046998.2,N
1618051715.1,286047001.1,N
1618051716.0,286047001.1,N
1618051735.8,286047001.2,N
1618051755.7,286047001.1,N
1618051775.5,286047001.0,N
1618051795.4,286047001.2,N
1618051815.2,286046998.6,N
1618051835.0,286047000.8,N
1618051835.9,286047000.8,N
1618051855.8,286047001.0,N
1618051875.6,286046998.1,N
1618051895.4,286046998.2,N
1618051915.3,286047001.0,N
1618051935.1,286047000.6,N
1618051955.9,286047001.0,N
1618051975.7,286047001.2,N
1618051995.5,286046998.5,N
1618052015.4,286046998.3,N
1618052035.2,286046998.5,N
1618052055.0,286046998.3,N
1618052055.9,286046998.3,N
1618052075.8,286046998.7,N
1618052095.6,286046998.6,N
1618052115.5,286046998.3,N
1618052135.3,286046998.6,N
1618052155.1,286046998.3,N
1618052175.9,286046998.2,N
1618052195.7,286046998.2,N
1618052215.6,286047000.5,N
1618052235.4,286047000.6,N
1618052255.2,286047000.4,N
1618052275.1,286047001.0,N
1618052276.0,286047001.0,N
1618052295.8,286047000.5,N
1618052315.6,286047001.0,N
1618052335.5,286047000.5,N
1618052355.3,286047001.1,N
1618052375.2,286047001.2,N
1618052395.9,286046998.1,N
